sat.trackr.live / text

‹ back to catalog

STARLINK-2473

NORAD 48131 · 2021-027AR

PAYLOAD ACTIVE UNKNOWN

§ Identity

Operator
Country
US
Launch date
2021-04-07
Launch site
AFETR
Launch vehicle
Mass (kg)
RCS (m²)

Purposes: comms

External: N2YO · Heavens-Above · Gunter

§ Orbital elements

Epoch: 2026-09-08T20:33:25.360992Z

Period
94.01 min
Inclination
53.1587°
Eccentricity
0.0001041
Mean motion
15.31712542 rev/d
Perigee alt
470.0 km
Apogee alt
471.4 km
Semi-major
6,848.8 km
B*
2.1074e-4
RAAN
20.4445°
Arg perigee
80.0243°
Mean anomaly
280.0876°
Rev number
30,074

§ Raw data

STARLINK-24731 48131U 21027AR  26251.85654353  .00006182  00000+0  21074-3 0  99972 48131  53.1587  20.4445 0001041  80.0243 280.0876 15.31712542300746

JSON: /api/v1/satellites/48131 · /tle

For live sub-satellite position, see the globe view (requires WebGL).

§ Visibility from observer

Set your observer location to see the next 7 days of passes ≥ 10°. The values pass through the URL so the page stays shareable.

No JS? Fill the form by hand. The geolocation button needs JavaScript.